Location: Carri�res
(48.9069°N, 2.1792°E)
Time: 05:01:04
(UTC+00:00)

SeaSat 1 - Pass Details

Date: 14 May 2021
Orbit: 744 x 747 km, 108.0° (Epoch: 12 June)

Event Time Altitude Azimuth Distance (km) Brightness Sun altitude
Rises 00:52:40 0° 26° (NNE) 3,203 7.2 -20.9°
Reaches altitude 10° 00:54:58 10° 24° (NNE) 2,275 6.1 -20.8°
Maximum altitude 00:59:50 62° 304° (NW) 843 2.7 -20.6°
Enters shadow 01:01:44 36° 239° (WSW) 1,177 3.1 -20.5°
